Weather in Yemilchyne

Ukraine / Zhytomyr Region     50°52′18″N   27°48′06″E
temp.,
°C
wind,
m/s
gust,
m/s
humid.,
%
clouds,
%
prec.,
mm/h
press.,
hPa
HPBL,
m
9 may, sun
sun900:00+2wnw37922 0.0 1020135
03:00+1wnw38940 0.0 1021139
06:00+1wnw36954 0.0 1023122
09:00+7wnw35770 0.0 1024488
12:00+11wnw345449 0.0 10241685
15:00+13w344269 0.1 10242204
18:00+13wsw334727 0.0 10241929
21:00+8ssw22622 0.0 102516
10 may, mon
mon1000:00+6s33624 0.0 102630
03:00+5sse36695 0.0 102782
06:00+4sse36735 0.0 102696
09:00+11sse466173 0.0 1027340
12:00+15sse5652100 0.0 10261106
15:00+17sse554958 0.0 10251465
18:00+16se45586 0.0 10241308
21:00+11se46765 0.0 102478
11 may, tue
tue1100:00+8se48780 0.0 1025125
03:00+6se48850 0.0 1025134
06:00+6ese37810 0.0 1025111
09:00+12ese57610 0.0 1024448
12:00+15e57470 0.0 10231061
15:00+17e45505 0.0 10211135
18:00+17e56645 0.0 1020971
21:00+12ene411855 0.0 1019231
12 may, wed
wed1200:00+12e4119189 0.0 1018326
03:00+10e411975 0.0 1018319
06:00+7e499820 0.0 1017239
09:00+10e7107167 0.0 1017804
12:00+12e6863100 0.0 10151538
15:00+12e5664100 0.2 10141372
18:00+12ene56686 0.1 1013886
21:00+7e489165 0.1 1012210
13 may, thu
thu1300:00+6e369358 0.0 1012199
03:00+6ese359452 0.0 1011136
06:00+5ese49978 0.0 1010215
09:00+10se71080100 0.0 1009706
12:00+10se71291100 0.5 1009731
15:00+14sse91281100 1.1 10081213
18:00+10sse41288100 0.8 1009567
21:00+10ese379699 1.0 1008187